User: anonymous   Login
Location: Holcomb Observatory
(44.4922°N, 73.1654°W)
Time: 00:57:57
(UTC-04:00)
Language:

Cosmos 1727 Rocket - Orbit

View from above orbital plane
View from above orbital plane
View from above satellite
View from above satellite

Ground track
Ground track

The orbit data is extracted from the following two-line orbital elements,

1 16511U 86008B   17141.78030039 +.00000018 +00000-0 +24541-5 0  9990
2 16511 082.9463 239.4927 0023952 359.9809 109.6846 13.75807084572649
Epoch (UTC): 21 May 2017 18:43:37
Eccentricity: 0.0023952
inclination: 82.9463°
perigee height: 961 km
apogee height: 996 km
right ascension of ascending node: 239.4927°
argument of perigee: 359.9809°
revolutions per day: 13.75807084
mean anomaly at epoch: 109.6846°
orbit number at epoch: 57264

The dashed part of the orbit path shows where the satellite is in the earth's shadow,  

DLR